Location: *
(1.3500°S, 147.5000°W)
Time: 02:18:39
(UTC+00:00)

Daily predictions for brighter satellites

Satellite Brightness Start Highest point End
(mag) Time Altitude Azimuth Time Altitude Azimuth Time Altitude Azimuth
Cosmos 1943 3.8 04:10:11 10° SSW 04:15:43 62° WNW 04:21:16 10° N
Cosmos 304 Rocket 4.3 04:14:00 10° N 04:18:24 38° ENE 04:22:51 10° SE
ASTRO E2 2.8 04:15:58 10° SW 04:19:55 61° SSE 04:23:51 10° ENE
Meteor 2-16 Rocket 4.4 04:17:47 10° N 04:23:55 75° E 04:30:02 10° S
FengYun 1-2 T 4.2 04:19:21 10° SSE 04:24:52 78° ENE 04:30:21 10° N
Skynet4D Del rocket 3.9 04:19:57 10° SW 04:25:43 54° SSE 04:30:58 10° ENE
Cosmos 2315 Rocket 4.2 04:21:41 10° S 04:27:57 79° W 04:34:15 10° N
DELTA 2 R/B (1) 3.9 04:25:17 10° NW 04:30:49 70° SW 04:36:23 10° SE
Okean 1-7 Rocket 3.5 04:29:22 10° N 04:33:45 76° E 04:38:12 10° S
IUS-1 SRM-2 4.3 04:09:08 10° WSW 04:34:23 68° SSE 04:38:27 14° ENE
Cosmos 1140 Rocket 4.1 04:32:41 10° SSE 04:37:22 33° ESE 04:42:01 10° NE
Meteor 2-10 4.0 04:32:20 10° S 04:37:26 60° E 04:42:41 10° NNE
Centaur AC-69 4.4 04:37:55 10° S 04:38:32 11° SSE 04:39:01 10° SE
Cosmos 1331 Rocket 3.9 04:34:20 10° N 04:39:27 69° ENE 04:44:36 10° SSE
GPS 2-12 Rocket1 3.1 04:35:32 10° WSW 04:40:21 88° SSE 04:44:08 16° ENE
Cosmos 1190 Rocket 4.3 04:36:15 10° S 04:41:19 46° ESE 04:46:22 10° NNE
SL-14 R/B 3.4 04:38:55 10° N 04:42:44 50° E 04:46:31 10° SSE
NOAA 11 4.1 04:37:28 10° SSE 04:42:52 68° ENE 04:48:15 10° N
Meteor 1-24 Rocket 3.5 04:38:34 10° N 04:43:50 82° E 04:49:12 10° S
USA 215 3.4 04:38:43 10° SSE 04:45:16 76° SW 04:51:47 10° NW
Ariane H10 4.3 04:44:10 10° WNW 04:47:13 52° N 04:53:15 17° ENE
GPS 2-17 Rocket1 3.5 04:43:42 10° W 04:48:23 57° SSW 04:51:38 20° SE
STARLINK-43 4.3 04:45:16 10° S 04:48:28 27° SE 04:49:04 26° ESE
STARLINK-1066 3.6 04:46:32 10° NNW 04:49:26 34° ENE 04:50:01 31° E
STARLINK-1081 3.5 04:46:59 10° NNW 04:49:52 35° ENE 04:50:24 32° E
STARLINK-1070 3.5 04:47:25 10° NNW 04:50:18 35° ENE 04:50:50 32° E
Atlas Centaur 2 3.4 04:44:05 10° WNW 04:50:25 40° SW 04:55:15 11° SSE
Cosmos 1626 2.0 04:46:50 10° N 04:50:29 65° E 04:54:09 10° SSE
STARLINK-1069 3.5 04:47:51 10° NNW 04:50:46 36° ENE 04:51:19 33° E
Cosmos 614 Rocket 4.1 04:45:55 10° SSW 04:51:08 82° WNW 04:56:21 10° N
STARLINK-1085 3.5 04:48:18 10° NNW 04:51:14 37° NE 04:51:46 34° E
OAO 2 Rocket 3.7 04:46:23 10° NW 04:51:19 47° NE 04:53:55 25° E
STARLINK-1086 3.4 04:48:44 10° NNW 04:51:38 37° ENE 04:52:06 34° E
STARLINK-1095 3.4 04:49:11 10° NNW 04:52:06 38° NE 04:52:34 35° E
STARLINK-1077 3.4 04:49:38 10° NNW 04:52:33 39° NE 04:53:00 36° E
Spelda 4.3 04:50:26 10° WNW 04:52:57 36° N 04:55:43 20° ENE
STARLINK-1075 3.3 04:50:04 10° NNW 04:52:59 39° ENE 04:53:25 37° E
STARLINK-1093 3.3 04:50:28 10° NNW 04:53:26 40° NE 04:53:54 37° E
YAOGAN 1 2.4 04:49:34 10° SSE 04:53:54 76° ENE 04:58:11 10° N
STARLINK-1074 3.3 04:50:56 10° NNW 04:53:55 41° ENE 04:54:21 38° E
STARLINK-1087 3.3 04:51:22 10° NNW 04:54:20 41° NE 04:54:43 39° ENE
CZ-2C R/B 4.3 04:50:37 10° NE 04:54:42 33° ESE 04:58:44 10° SSE
STARLINK-1088 3.2 04:51:50 10° NNW 04:54:47 42° ENE 04:55:09 40° ENE
STARLINK-1115 3.2 04:52:16 10° NNW 04:55:15 43° NE 04:55:39 41° E
STARLINK-1076 3.2 04:52:42 10° NNW 04:55:41 44° NE 04:56:04 41° E
STARLINK-1092 3.2 04:53:08 10° NNW 04:56:10 45° NE 04:56:31 42° E
STARLINK-1080 3.1 04:53:35 10° NNW 04:56:34 45° ENE 04:56:52 43° ENE
STARLINK-1090 3.1 04:54:02 10° NNW 04:57:01 46° NE 04:57:18 44° ENE
STARLINK-1089 3.1 04:54:29 10° NNW 04:57:29 47° NE 04:57:45 45° ENE
STARLINK-1107 3.0 04:54:56 10° NNW 04:57:56 48° ENE 04:58:11 47° ENE
Cosmos 1709 Rocket 3.8 04:52:41 10° N 04:58:43 68° E 05:04:47 10° S
CZ-4 R/B 2.0 04:57:09 10° S 05:00:59 54° WSW 05:04:45 10° NNW
NATO 3D Rocket 4.0 04:57:00 10° WNW 05:02:28 72° NNE 05:06:24 28° ESE
Cosmos 1939 Rocket 3.1 05:00:10 10° S 05:04:11 68° WSW 05:08:06 10° NNW
OAO 3 Rocket 3.9 05:01:11 10° WNW 05:05:52 48° SW 05:08:38 22° SSE
Cosmos 1908 3.2 05:04:06 10° S 05:07:50 55° E 05:11:35 10° NNE
Cosmos 407 Rocket 3.9 05:04:28 10° SSW 05:09:39 62° WNW 05:14:44 10° N
Cosmos 676 Rocket 4.1 05:04:47 10° S 05:09:57 51° ESE 05:15:04 10° NNE
ARGOS Delta rocket 4.1 05:12:13 39° ESE 05:13:23 46° E 05:18:18 10° N
SWIFT 4.2 05:15:34 10° SSW 05:17:52 18° S 05:17:52 18° S
Cosmos 1726 Rocket 3.4 05:15:13 10° S 05:19:34 86° E 05:23:56 10° N
IRIDIUM 103 4.5 05:15:27 10° NNE 05:20:08 49° ENE 05:20:08 49° ENE
Mugunghwa Rocket 4.4 05:13:26 10° WNW 05:21:45 81° NNE 05:24:48 41° ESE
Cosmos 1626 Rocket 3.8 05:20:02 10° N 05:24:17 67° W 05:28:34 10° S
ARIANE 5 DEB (SYLDA) 4.2 05:16:03 10° W 05:27:23 78° S 05:27:53 67° SE
Cosmos 1954 Rocket 3.9 05:28:08 10° SSW 05:33:28 88° W 05:38:43 10° NNE
Cosmos 1602 Rocket 3.8 05:31:19 10° NNW 05:35:37 65° W 05:36:17 55° SW
Cosmos 2297 4.4 05:31:26 10° NNW 05:36:59 54° WSW 05:41:56 13° S
IRIDIUM 106 4.2 05:33:28 10° N 05:38:15 75° NNE 05:38:15 75° NNE
Spelda 30 4.5 05:41:55 10° W 05:44:23 28° W 05:44:23 28° W
Meteor 1-21 Rocket 4.3 05:41:46 10° N 05:46:24 64° N 05:46:24 64° N
H-2A R/B 3.6 05:50:55 25° N 05:50:55 25° N 05:53:00 10° N
Cosmos 1943 Rocket 3.4 05:47:28 10° N 05:50:19 31° N 05:50:19 31° N
Cosmos 2369 Rocket 4.2 05:55:01 10° N 05:56:04 16° N 05:56:04 16° N
Milstar 3 Cent rocket 4.3 05:51:34 10° WNW 06:01:22 79° SSW 06:08:50 44° SE
ATLAS 3B CENTAUR R/B 3.6 06:00:06 10° WNW 06:02:50 25° NW 06:02:50 25° NW
Ariane H10+ 4.1 05:57:28 10° W 06:09:27 76° S 06:09:27 76° S
ARIANE DEB (SPELDA) 4.5 06:08:16 10° W 06:29:03 58° NW 06:29:03 58° NW
